AirNav   Air Wisconsin Up To $57,000 Bonus
 
 1347 users online  

KEGT Wellington Municipal Airport
Wellington, Kansas, USA

GOING TO WELLINGTON?


FAA INFORMATION EFFECTIVE 10 OCTOBER 2019

Location

FAA Identifier: EGT
Lat/Long: 37-19-29.9846N 097-23-18.0815W
37-19.499743N 097-23.301358W
37.3249957,-97.3883560
(estimated)
Elevation: 1277 ft. / 389.2 m (surveyed)
Variation: 03E (2020)
From city: 3 miles N of WELLINGTON, KS
Time zone: UTC -5 (UTC -6 during Standard Time)
Zip code: 67152

Airport Operations

Airport use: Open to the public
Activation date: 11/1942
Control tower: no
ARTCC: KANSAS CITY CENTER
FSS: WICHITA FLIGHT SERVICE STATION
NOTAMs facility: ICT (NOTAM-D service available)
Attendance: 0800-1700
Wind indicator: lighted
Segmented circle: no
Lights: ACTVT REIL RWY 18 & 36; HIRL RWY 18/36 - CTAF. PAPI RWY 18 & 36 OPR CONSLY.
Beacon: white-green (lighted land airport)
Operates sunset to sunrise.

Airport Communications

CTAF/UNICOM: 122.8
WX AWOS-3: 118.875 (620-326-2470)
WICHITA APPROACH: 134.85
WICHITA DEPARTURE: 134.85
WX ASOS at WLD (19 nm SE): 118.025 (620-221-9121)
WX ASOS at ICT (20 nm N): PHONE 316-945-8022

Nearby radio navigation aids

VOR radial/distance  VOR name  Freq  Var
ICTr153/26.9WICHITA VORTAC113.8007E
PERr337/36.4PIONEER VORTAC113.2006E
ANYr068/38.7ANTHONY VORTAC112.9007E

Airport Services

Fuel available: 100LL JET-A
AFT HRS CALL (620) 440-2213.
SELF SVC FUEL 100LL AVBL 24 HR WITH CREDIT CARD.
Parking: tiedowns
Airframe service: MAJOR
Powerplant service: MAJOR
Bottled oxygen: NONE
Bulk oxygen: NONE

Runway Information

Runway 18/36

Dimensions: 5201 x 100 ft. / 1585 x 30 m
Surface: concrete, in good condition
Weight bearing capacity: 
Single wheel: 49.0
Double wheel: 60.0
Runway edge lights: high intensity
RUNWAY 18  RUNWAY 36
Latitude: 37-19.928178N37-19.071307N
Longitude: 097-23.306732W097-23.295985W
Elevation: 1276.9 ft.1271.0 ft.
Traffic pattern: leftleft
Runway heading: 176 magnetic, 179 true356 magnetic, 359 true
Markings: nonprecision, in good conditionnonprecision, in good condition
Visual slope indicator: 4-light PAPI on left (3.00 degrees glide path)4-light PAPI on left (3.00 degrees glide path)
Runway end identifier lights: yesyes
Touchdown point: yes, no lightsyes, no lights

Airport Ownership and Management from official FAA records

Ownership: Publicly-owned
Owner: CITY OF WELLINGTON
441 NORTH WEST ROAD
WELLINGTON, KS 67152
Phone (620) 440-2213
Manager: MATTHEW D. WIEBE
441 NORTH WEST ROAD
WELLINGTON, KS 67152
Phone (620) 440-2213

Airport Operational Statistics

Aircraft based on the field: 29
Single engine airplanes: 25
Multi engine airplanes: 4
    
Aircraft operations: avg 50/day *
54% transient general aviation
44% local general aviation
1% commercial
<1% military
* for 12-month period ending 27 August 2018

Additional Remarks

FOR SPECIAL REQS & AFT HRS CALL 620-440-2213.
KEY CODE FOR PILOT LOUNGE 1228
FOR CD CTC WICHITA APCH AT 316-350-1520.

Instrument Procedures

NOTE: All procedures below are presented as PDF files. If you need a reader for these files, you should download the free Adobe Reader.

NOT FOR NAVIGATION. Please procure official charts for flight.
FAA instrument procedures published for use from 10 October 2019 at 0901Z to 17 November 2019 at 0900Z.

 
IAPs - Instrument Approach Procedures
RNAV (GPS) RWY 18   download (244KB)
RNAV (GPS) RWY 36   download (241KB)
VOR RWY 18   download (202KB)
NOTE: Special Take-Off Minimums/Departure Procedures apply   download (259KB)

Other nearby airports with instrument procedures:

KIAB - Mc Connell Air Force Base (19 nm N)
KWLD - Strother Field Airport (19 nm SE)
KICT - Wichita Dwight D Eisenhower National Airport (20 nm N)
KCEA - Cessna Aircraft Field Airport (20 nm N)
KBEC - Beech Factory Airport (24 nm N)
 
Loc | Ops | Rwys | IFR | FBO | Links
Com | Nav | Svcs | Stats | Notes

Kansas City Aviation Department
 
Area around KEGT (Wellington Municipal Airport)
 
Road maps at: MapQuest Bing Google
 
Aerial photo
WARNING: Photo may not be current or correct
Aerial photo of KEGT (Wellington Municipal Airport)
Photo taken 04-Sep-2015
looking east.

Do you have a better or more recent aerial photo of Wellington Municipal Airport that you would like to share? If so, please send us your photo.

 
Sectional chart

 
Airport distance calculator
Flying to Wellington Municipal Airport? Find the distance to fly.

From to KEGT

Sunrise and sunset
Times for 18-Oct-2019
 Local
(UTC-5)
 Zulu
(UTC)
Morning civil twilight07:1512:15
Sunrise07:4112:41
Sunset18:4823:48
Evening civil twilight19:1400:14

Current date and time
Zulu (UTC)  18-Oct-2019 16:38:12
Local (UTC-5)  18-Oct-2019 11:38:12
 
METAR
KIAB 
18nm N 
181556Z AUTO 13016KT 10SM CLR 17/07 A2976 RMK AO2 PK WND 13026/19 SLP075 T01700065 $
KWLD 
19nm SE 
181554Z AUTO 17017G24KT 10SM CLR 17/08 A2980 RMK AO2 PK WND 15027/1504 SLP085 T01670083
KICT 
20nm N 
181553Z 17023G30KT 10SM FEW300 17/07 A2975 RMK AO2 PK WND 19031/1533 SLP066 T01720072
KBEC 
24nm N 
181615Z AUTO 16016G23KT 10SM CLR 18/08 A2975 RMK AO2 T01750075
K3AU 
26nm NE 
181615Z AUTO 16018KT 10SM CLR 17/07 A2976 RMK AO2
KAAO 
27nm N 
181554Z AUTO 17019G29KT 10SM CLR 17/08 A2975 RMK AO2 PK WND 17029/1544 SLP070 T01670078
K1K1 
30nm NE 
181615Z AUTO 18018G29KT 10SM CLR 16/07 A2975 RMK AO2 T01620070
KBKN 
35nm S 
181615Z AUTO 16018KT 10SM CLR 19/08 A2980 RMK AO2
TAF
KIAB 
18nm N 
181000Z 1810/1916 14012G18KT 9999 SKC 510022 QNH2976INS BECMG 1816/1817 18025G35KT 9999 SKC QNH2961INS BECMG 1823/1824 16012KT 9999 FEW095 QNH2961INS BECMG 1901/1902 VRB06KT 9000 -SHRA BKN050 QNH2968INS TEMPO 1903/1905 18025G35KT 8000 TSRA OVC030CB BECMG 1905/1906 VRB06KT 9999 NSW FEW040 QNH2968INS BECMG 1911/1912 35012KT 9999 BKN010 QNH2981INS TX24/1821Z TN10/1812Z
KICT 
20nm N 
181120Z 1812/1912 17017G22KT P6SM BKN300 WS020/19052KT FM181400 17022G30KT P6SM SKC FM181700 17030G39KT P6SM SKC FM182300 17017G26KT P6SM SKC FM190200 16017KT P6SM BKN100 WS020/19045KT FM190400 17009KT P6SM VCSH OVC080
NOTAMs
Click for the latest NOTAMs
NOTAMs are issued by the DoD/FAA and will open in a separate window not controlled by AirNav.

 

 
 

FBO, Fuel Providers, and Aircraft Ground Support

  
 Business Name 
 
 Contact 
 
 Services / Description 
 
Fuel Prices
 
Comments
  
 Wellington Municipal Airport
620-440-2213
[web site]
[email]
Airport management, Aviation fuel, Aircraft parking (ramp or tiedown), Hangars, Passenger terminal and lounge, Flight training, Aircraft modifications, Pilot supplies, ...
 
Courtesy car   Enterprise Rent-A-Car  
 
More info about Wellington Municipal Airport
Avfuel
100LL Jet A
AS $4.60 --- 
FS --- $3.70 
 Updated 07-Oct-2019
 
   1 read write
AS=Assisted/Self Service
FS=Full service
Update Fuel Prices
 

Aviation Businesses, Services, and Facilities

  
 Business Name 
 
 Contact 
 
 Services / Description 
 
Distance
 
Comments
  
Air Plains Services 620-326-8904
toll-free 1-800-752-8481
[web site]
[email]
Aircraft maintenance, Avionics sales and service, Aircraft modifications, Aircraft painting, Aircraft interiors, Aircraft cleaning / washing / detailing, Aircraft parts

More info about Air Plains Services
on airport  
   write
 

Would you like to see your business listed on this page?

 If your business provides an interesting product or service to pilots, flight crews, aircraft, or users of the Wellington Municipal Airport, you should consider listing it here.  To start the listing process, click on the button below
 
Add a business
 

Other Pages about Wellington Municipal Airport

cityofwellington.net/municipal-airport
 
Update a link
 
Copyright © AirNav, LLC. All rights reserved. Privacy Policy  Contact